Location: Austin
(30.3000°N, 97.7500°W)
Time: 01:02:09
(UTC-05:00)

BREEZE-M DEB (TANK) - Pass Details

Date: 15 May 2024
Orbit: 301 x 19630 km, 49.3° (Epoch: 29 May)

Event Time Altitude Azimuth Distance (km) Brightness Sun altitude
Rises 20:41:32 0° 206° (SSW) 2,281 6.0 -5.4°
Reaches altitude 10° 20:43:44 10° 189° (S) 1,188 4.4 -5.8°
Maximum altitude 20:45:31 23° 130° (SE) 706 2.8 -6.1°
Drops below altitude 10° 20:47:34 10° 71° (ENE) 1,379 4.5 -6.5°
Sets 20:50:25 0° 56° (NE) 2,832 6.2 -7.1°
